Showing default

MANDRAKE 2 ABLE, 48907

Orbit data source: Space-Track

MANDRAKE 2 ABLE, 48907 is an American payload satellite in SSO that was launched on Wed, 30 Jun 2021 UTC via an FALCON 9 launch vehicle from the Air Force Eastern Test Range (AFETR). Payload-class satellites include a variety of spacecraft equipped with specific instruments for various scientific and technological missions. These include communications satellites like Starlink; space stations such as the ISS; scientific satellites like the Hubble; Earth observation satellites from companies like Planet Labs, Umbra, and HawkEye 360; GPS; miniature CubeSats for education and research; and military/defense satellites.

Loading next visibility...
Identifier
48907, 2021-059AE
Orbit
SSO
Country
Flag of USUS
Related business
Manufacturer
Astro Digital
Mission
Operational Defense Communications
Bus & Motor
CORVUS-XL, Unknown motor
Mass
23 kg wet, 23 kg dry
Launch date (UTC)
2021-06-30 (4 years ago)
Launch vehicle
FALCON 9
Launch site
Air Force Eastern Test Range (AFETR)
Object type
Payload
Rocket body
Debris
Shape & HBR
Box + 1 Pan, 1.5 m
Radar Cross Section
0.375 m², Medium (>0.1 m² and < 1m²)

Expand to show TLE details & history
Last TLE update: 10 hours ago

TLE from 10 hours ago
0 MANDRAKE 2 ABLE
1 48907U 21059AE  25309.22453324  .00019633  00000-0  42237-3 0  9992
2 48907  97.6985 118.7092 0006270  95.6265 264.5697 15.44669121242433
Epoch: 2025-11-05T05:23Z
TLE epoch observation values (Epoch: 2025-11-05T05:23:19.671Z)
Latitude
-0.00013°
Longitude
-6.82301°
Altitude
435.872 km
Speed
7.65 km/s
True Right ascension
07h 54m 50s
True Declination
0° 00' 00"
Sunlit
Object was in daylight at epoch
Visualization orbit readout
Latitude
Unknown
Longitude
Unknown
Altitude
Unknown
Speed
Unknown
Apparent Right ascension
Unknown
Apparent Declination
Unknown
Sunlit
N/A
Visualization observer readout
Local Sidereal Time
11:28:39
Azimuth
Unknown
Elevation
Unknown
Doppler factor
Unknown
Orbital elements
Apogee altitude
433.565 km
Perigee altitude
425.028 km
Semi-major axis
6,807.433 km
Eccentricity
0.00063
Inclination
97.6985°
RAAN
118.7092°
Arg. of periapsis
95.6265°
True anomaly
264.49818°
Mean anomaly
264.5697°
Eccentric anomaly
264.53394°
Mean motion
3.86428 °/min
Orbital period
93.16 mins
BSTAR
0.00042237
Loading maneuver chart data...
Computing Atmospheric mass density...

Documentation

Showing up to 5 results
|